Previsão horária em Celestún

Hoje, 3 Agosto, Terça-feira

Tempo Temperatura Precipitação Vento Pressão Humidade
00:00 +27°C° 0 mm 5 m/s 761 mmHg 85%
01:00 +26°C° 0 mm 4 m/s 761 mmHg 87%
02:00 +26°C° 0 mm 4 m/s 760 mmHg 89%
03:00 +25°C° 0 mm 4 m/s 760 mmHg 91%
04:00 +25°C° 0 mm 3 m/s 760 mmHg 92%
05:00 +25°C° 0 mm 3 m/s 760 mmHg 92%
06:00 +25°C° 0 mm 3 m/s 760 mmHg 93%
07:00 +28°C° 0 mm 3 m/s 761 mmHg 81%
08:00 +30°C° 0 mm 2 m/s 761 mmHg 68%
09:00 +34°C° 0 mm 2 m/s 761 mmHg 56%
10:00 +36°C° 0 mm 3 m/s 761 mmHg 51%
11:00 +37°C° 0 mm 3 m/s 760 mmHg 46%
12:00 +39°C° 0 mm 3 m/s 760 mmHg 40%
13:00 +37°C° 0 mm 4 m/s 759 mmHg 47%
14:00 +36°C° 0 mm 5 m/s 759 mmHg 54%
15:00 +34°C° 0 mm 6 m/s 759 mmHg 60%
16:00 +34°C° 0 mm 6 m/s 759 mmHg 62%
17:00 +33°C° 0 mm 7 m/s 759 mmHg 63%
18:00 +33°C° 0 mm 7 m/s 759 mmHg 65%
19:00 +32°C° 0.2 mm 6 m/s 759 mmHg 68%
20:00 +30°C° 0.2 mm 6 m/s 759 mmHg 71%
21:00 +29°C° 0.2 mm 5 m/s 760 mmHg 74%
22:00 +28°C° 0.1 mm 5 m/s 760 mmHg 78%
23:00 +27°C° 0.1 mm 5 m/s 760 mmHg 81%

Amanhã, 4 Agosto, Quarta-feira

Tempo Temperatura Precipitação Vento Pressão Humidade
00:00 +27°C° 0.1 mm 4 m/s 760 mmHg 85%
01:00 +26°C° 0 mm 5 m/s 759 mmHg 86%
02:00 +26°C° 0 mm 5 m/s 759 mmHg 86%
03:00 +26°C° 0 mm 5 m/s 759 mmHg 87%
04:00 +25°C° 0 mm 5 m/s 759 mmHg 90%
05:00 +25°C° 0 mm 4 m/s 759 mmHg 93%
06:00 +23°C° 0 mm 4 m/s 760 mmHg 96%
07:00 +27°C° 0 mm 4 m/s 760 mmHg 84%
08:00 +30°C° 0 mm 3 m/s 760 mmHg 72%
09:00 +34°C° 0 mm 3 m/s 761 mmHg 60%
10:00 +35°C° 0 mm 3 m/s 760 mmHg 52%
11:00 +37°C° 0 mm 3 m/s 760 mmHg 43%
12:00 +39°C° 0 mm 3 m/s 760 mmHg 35%
13:00 +38°C° 0 mm 4 m/s 759 mmHg 41%
14:00 +37°C° 0 mm 5 m/s 759 mmHg 46%
15:00 +36°C° 0 mm 6 m/s 758 mmHg 52%
16:00 +35°C° 0 mm 6 m/s 758 mmHg 57%
17:00 +34°C° 0 mm 7 m/s 758 mmHg 62%
18:00 +33°C° 0 mm 7 m/s 758 mmHg 66%
19:00 +32°C° 0 mm 7 m/s 759 mmHg 69%
20:00 +32°C° 0 mm 7 m/s 759 mmHg 72%
21:00 +30°C° 0 mm 7 m/s 760 mmHg 74%
22:00 +30°C° 0.1 mm 6 m/s 760 mmHg 75%
23:00 +29°C° 0.1 mm 5 m/s 760 mmHg 76%

Depois de amanhã, 5 Agosto, Quinta-feira

Tempo Temperatura Precipitação Vento Pressão Humidade
00:00 +29°C° 0.1 mm 5 m/s 760 mmHg 77%
01:00 +28°C° 0 mm 5 m/s 760 mmHg 78%
02:00 +28°C° 0 mm 5 m/s 760 mmHg 78%
03:00 +28°C° 0 mm 5 m/s 760 mmHg 78%
04:00 +27°C° 0 mm 5 m/s 760 mmHg 82%
05:00 +27°C° 0 mm 5 m/s 760 mmHg 86%
06:00 +26°C° 0 mm 4 m/s 761 mmHg 90%
07:00 +28°C° 0 mm 4 m/s 761 mmHg 79%
08:00 +32°C° 0 mm 4 m/s 761 mmHg 68%
09:00 +34°C° 0 mm 4 m/s 761 mmHg 58%
10:00 +36°C° 0 mm 4 m/s 761 mmHg 51%
11:00 +37°C° 0 mm 4 m/s 761 mmHg 44%
12:00 +40°C° 0 mm 4 m/s 760 mmHg 38%
13:00 +38°C° 0 mm 4 m/s 760 mmHg 43%
14:00 +37°C° 0 mm 5 m/s 759 mmHg 49%
15:00 +36°C° 0 mm 6 m/s 759 mmHg 54%
16:00 +35°C° 0 mm 7 m/s 759 mmHg 59%
17:00 +34°C° 0 mm 7 m/s 759 mmHg 65%
18:00 +33°C° 0 mm 7 m/s 759 mmHg 70%
19:00 +32°C° 0.1 mm 7 m/s 759 mmHg 71%
20:00 +32°C° 0.1 mm 7 m/s 760 mmHg 73%
21:00 +30°C° 0.1 mm 6 m/s 760 mmHg 74%
22:00 +30°C° 0.3 mm 6 m/s 760 mmHg 72%
23:00 +30°C° 0.3 mm 6 m/s 760 mmHg 70%

6 Agosto, Sexta-feira

Tempo Temperatura Precipitação Vento Pressão Humidade
00:00 +30°C° 0.3 mm 5 m/s 761 mmHg 68%
01:00 +29°C° 0 mm 5 m/s 760 mmHg 71%
02:00 +28°C° 0 mm 5 m/s 760 mmHg 74%
03:00 +27°C° 0 mm 5 m/s 760 mmHg 76%
04:00 +26°C° 0 mm 5 m/s 760 mmHg 82%
05:00 +25°C° 0 mm 4 m/s 760 mmHg 87%
06:00 +25°C° 0 mm 4 m/s 761 mmHg 93%
07:00 +27°C° 0 mm 4 m/s 761 mmHg 81%
08:00 +30°C° 0 mm 3 m/s 761 mmHg 69%
09:00 +34°C° 0 mm 3 m/s 762 mmHg 58%
10:00 +36°C° 0 mm 3 m/s 761 mmHg 51%
11:00 +37°C° 0 mm 4 m/s 761 mmHg 45%
12:00 +40°C° 0 mm 4 m/s 760 mmHg 39%
13:00 +37°C° 0 mm 5 m/s 760 mmHg 48%
14:00 +35°C° 0 mm 6 m/s 759 mmHg 57%
15:00 +33°C° 0 mm 7 m/s 759 mmHg 66%
16:00 +31°C° 2.2 mm 8 m/s 760 mmHg 75%
17:00 +28°C° 2.2 mm 8 m/s 760 mmHg 85%
18:00 +26°C° 2.2 mm 9 m/s 761 mmHg 95%
19:00 +24°C° 1.9 mm 8 m/s 761 mmHg 95%
20:00 +24°C° 1.9 mm 7 m/s 761 mmHg 94%
21:00 +24°C° 1.9 mm 6 m/s 761 mmHg 94%
22:00 +25°C° 0 mm 5 m/s 761 mmHg 94%
23:00 +25°C° 0 mm 4 m/s 761 mmHg 93%

7 Agosto, Sábado

Tempo Temperatura Precipitação Vento Pressão Humidade
00:00 +25°C° 0 mm 4 m/s 761 mmHg 93%
01:00 +25°C° 0 mm 4 m/s 761 mmHg 94%
02:00 +23°C° 0 mm 4 m/s 760 mmHg 95%
03:00 +23°C° 0 mm 4 m/s 760 mmHg 95%
04:00 +23°C° 0 mm 4 m/s 760 mmHg 95%
05:00 +23°C° 0 mm 4 m/s 760 mmHg 95%
06:00 +23°C° 0 mm 4 m/s 760 mmHg 95%
07:00 +27°C° 0 mm 4 m/s 761 mmHg 86%
08:00 +29°C° 0 mm 4 m/s 761 mmHg 77%
09:00 +32°C° 0 mm 4 m/s 762 mmHg 68%
10:00 +33°C° 0 mm 4 m/s 761 mmHg 63%
11:00 +34°C° 0 mm 3 m/s 761 mmHg 58%
12:00 +35°C° 0 mm 3 m/s 761 mmHg 53%
13:00 +35°C° 0.1 mm 3 m/s 760 mmHg 56%
14:00 +34°C° 0.1 mm 4 m/s 760 mmHg 59%
15:00 +34°C° 0.1 mm 5 m/s 759 mmHg 62%
16:00 +32°C° 3.1 mm 4 m/s 759 mmHg 70%
17:00 +30°C° 3.1 mm 4 m/s 759 mmHg 79%
18:00 +28°C° 3.1 mm 4 m/s 760 mmHg 87%
19:00 +28°C° 1.6 mm 4 m/s 760 mmHg 88%
20:00 +28°C° 1.6 mm 5 m/s 760 mmHg 89%
21:00 +28°C° 1.6 mm 5 m/s 760 mmHg 90%
22:00 +27°C° 0 mm 5 m/s 760 mmHg 91%
23:00 +27°C° 0 mm 5 m/s 760 mmHg 92%

8 Agosto, Domingo

Tempo Temperatura Precipitação Vento Pressão Humidade
00:00 +27°C° 0 mm 4 m/s 760 mmHg 93%
01:00 +26°C° 0 mm 4 m/s 760 mmHg 93%
02:00 +26°C° 0 mm 4 m/s 760 mmHg 93%
03:00 +25°C° 0 mm 4 m/s 759 mmHg 92%
04:00 +25°C° 0 mm 4 m/s 760 mmHg 94%
05:00 +25°C° 0 mm 4 m/s 760 mmHg 95%
06:00 +25°C° 0 mm 3 m/s 760 mmHg 96%
07:00 +27°C° 0 mm 3 m/s 761 mmHg 86%
08:00 +29°C° 0 mm 3 m/s 761 mmHg 76%
09:00 +32°C° 0 mm 4 m/s 761 mmHg 67%
10:00 +34°C° 0 mm 3 m/s 761 mmHg 59%
11:00 +35°C° 0 mm 3 m/s 760 mmHg 51%
12:00 +37°C° 0 mm 2 m/s 760 mmHg 43%
13:00 +37°C° 0 mm 4 m/s 759 mmHg 42%
14:00 +39°C° 0 mm 5 m/s 759 mmHg 42%
15:00 +39°C° 0 mm 6 m/s 758 mmHg 41%
16:00 +36°C° 0 mm 7 m/s 758 mmHg 51%
17:00 +34°C° 0 mm 7 m/s 758 mmHg 61%
18:00 +32°C° 0 mm 8 m/s 758 mmHg 71%
19:00 +30°C° 0 mm 7 m/s 759 mmHg 74%
20:00 +30°C° 0 mm 7 m/s 759 mmHg 77%
21:00 +29°C° 0 mm 6 m/s 760 mmHg 80%
22:00 +29°C° 0 mm 6 m/s 760 mmHg 77%
23:00 +29°C° 0 mm 6 m/s 760 mmHg 74%
Mostrar mais

Necessitamos do seu Consentimento

A Meteoprog e os seus Fornecedores de Serviços podem armazenar e aceder a dados pessoais como cookies, identificadores do dispositivo ou outras tecnologias semelhantes existentes no seu dispositivo e processar estes dados para personalizar conteúdos e anúncios, assim como funcionalidades nas redes sociais e análise de tráfego.

  • Armazenar e/ou aceder a informações no seu dispositivo

    Os cookies, identificadores do dispositivo ou outras informações podem ser armazenados ou acedidos no seu dispositivo, para os fins acima indicados.

  • Anúncios e conteúdos personalizados, medição de anúncios e conteúdos, dados sobre o público-alvo e desenvolvimento de produtos

    Os anúncios e os conteúdos podem ser personalizados com base num perfil. Podem ser adicionados dados adicionais para uma maior personalização dos anúncios e dos conteúdos. A eficácia dos anúncios e dos conteúdos pode ser medida. Podem ser obtidas informações sobre o público que visualizou os anúncios e os conteúdos. Estes dados podem ser usados para desenvolver ou melhorar sistemas, softwares ou a experiência do utilizador.

Ao clicar em "Eu concordo”, permitirá o uso de cookies, identificadores do dispositivo e web beacons mencionados ou outras tecnologias semelhantes. As configurações do navegador do seu dispositivo podem ser alteradas.

Para certos fins, podem ser invocados interesses legítimos ao invés de consentimento. Pode ler mais informação sobre este assunto na nossa Política de Privacidade e Cookies.